CPA488 VHHH-RCTP

Flight info

Callsign CPA488
Flight time 1h 6m
Altitude 33000
Route DALOL V631 ENVAR M750 EXTRA/N0520F290 M750 TONGA TONGA1A
Aircraft B77W/H-SDE1E2E3FGHIJ2J3J4J5M1RWXY/LB1D1

Departure

Time 2026-05-04 19:22
Airport Hong Kong International Airport (VHHH)

Arrival

Time 2026-05-04 20:29
Airport Taiwan Taoyuan International Airport (RCTP)
Time Latitude Longitude Altitude Speed Heading
2026-05-04 18:49 22.30764 113.89990 42 ft 0 kts 340°
2026-05-04 19:10 22.30763 113.89990 42 ft 1 kts 340°
2026-05-04 19:10 22.30749 113.89994 42 ft 2 kts 351°
2026-05-04 19:11 22.30734 113.89996 42 ft 2 kts
2026-05-04 19:11 22.30719 113.89993 42 ft 2 kts 14°
2026-05-04 19:11 22.30705 113.89988 42 ft 2 kts 24°
2026-05-04 19:11 22.30692 113.89980 42 ft 2 kts 35°
2026-05-04 19:12 22.30681 113.89970 42 ft 2 kts 46°
2026-05-04 19:12 22.30664 113.89944 42 ft 2 kts 68°
2026-05-04 19:12 22.30661 113.89937 42 ft 0 kts 71°
2026-05-04 19:15 22.30662 113.89938 42 ft 1 kts 71°
2026-05-04 19:15 22.30675 113.89980 42 ft 7 kts 71°
2026-05-04 19:16 22.30692 113.90029 42 ft 7 kts 66°
2026-05-04 19:16 22.30721 113.90072 42 ft 6 kts 36°
2026-05-04 19:16 22.30761 113.90082 42 ft 5 kts 357°
2026-05-04 19:16 22.30799 113.90074 42 ft 5 kts 343°
2026-05-04 19:17 22.30833 113.90060 42 ft 5 kts 333°
2026-05-04 19:17 22.30865 113.90026 42 ft 7 kts 297°
2026-05-04 19:17 22.30883 113.89970 42 ft 8 kts 298°
2026-05-04 19:17 22.30912 113.89921 42 ft 7 kts 296°
2026-05-04 19:18 22.30923 113.89865 42 ft 7 kts 278°
2026-05-04 19:18 22.30939 113.89818 42 ft 4 kts 308°
2026-05-04 19:18 22.30953 113.89806 42 ft 0 kts 335°
2026-05-04 19:20 22.30960 113.89803 42 ft 4 kts 335°
2026-05-04 19:20 22.31006 113.89784 42 ft 7 kts 345°
2026-05-04 19:21 22.31053 113.89786 42 ft 6 kts 19°
2026-05-04 19:21 22.31091 113.89816 42 ft 7 kts 51°
2026-05-04 19:21 22.31108 113.89852 42 ft 0 kts 66°
2026-05-04 19:22 22.31156 113.89984 42 ft 53 kts 70°
2026-05-04 19:22 22.31365 113.90646 42 ft 130 kts 71°
2026-05-04 19:22 22.31731 113.91794 187 ft 183 kts 72°
2026-05-04 19:22 22.32172 113.93167 811 ft 206 kts 73°
2026-05-04 19:23 22.32643 113.94621 1886 ft 210 kts 72°
2026-05-04 19:23 22.33135 113.96146 2508 ft 229 kts 73°
2026-05-04 19:23 22.33536 113.97871 3110 ft 248 kts 81°
2026-05-04 19:23 22.33839 113.99757 3898 ft 261 kts 82°
2026-05-04 19:24 22.34154 114.01723 4724 ft 271 kts 81°
2026-05-04 19:24 22.34463 114.03741 5569 ft 279 kts 86°
2026-05-04 19:24 22.34215 114.05798 6371 ft 284 kts 114°
2026-05-04 19:24 22.33104 114.07538 7113 ft 287 kts 143°
2026-05-04 19:25 22.31341 114.08508 7960 ft 284 kts 172°
2026-05-04 19:25 22.29395 114.08710 8890 ft 282 kts 183°
2026-05-04 19:25 22.27452 114.08712 9807 ft 283 kts 184°
2026-05-04 19:25 22.25450 114.08697 10526 ft 294 kts 184°
2026-05-04 19:26 22.23319 114.08733 11055 ft 314 kts 180°
2026-05-04 19:26 22.21111 114.09093 11580 ft 334 kts 171°
2026-05-04 19:26 22.18837 114.09875 12128 ft 354 kts 161°
2026-05-04 19:26 22.16555 114.11156 12690 ft 374 kts 150°
2026-05-04 19:27 22.14450 114.12925 13231 ft 394 kts 140°
2026-05-04 19:27 22.12604 114.15202 13736 ft 414 kts 128°
2026-05-04 19:27 22.11152 114.17942 14345 ft 428 kts 117°
2026-05-04 19:27 22.09900 114.20843 15163 ft 433 kts 117°
2026-05-04 19:28 22.08552 114.23728 16011 ft 434 kts 123°
2026-05-04 19:28 22.06792 114.26372 16711 ft 437 kts 134°
2026-05-04 19:28 22.04619 114.28670 17395 ft 439 kts 144°
2026-05-04 19:28 22.02173 114.30658 18164 ft 442 kts 147°
2026-05-04 19:29 21.99676 114.32607 18956 ft 444 kts 148°
2026-05-04 19:29 21.97169 114.34565 19650 ft 449 kts 148°
2026-05-04 19:29 21.94626 114.36556 20290 ft 455 kts 148°
2026-05-04 19:29 21.92053 114.38573 20956 ft 460 kts 148°
2026-05-04 19:30 21.89454 114.40652 21654 ft 465 kts 144°
2026-05-04 19:30 21.87079 114.43097 22276 ft 475 kts 135°
2026-05-04 19:30 21.85076 114.45931 22862 ft 486 kts 126°
2026-05-04 19:30 21.83462 114.49142 23348 ft 497 kts 116°
2026-05-04 19:31 21.82314 114.52676 23902 ft 506 kts 107°
2026-05-04 19:31 21.81421 114.56346 24489 ft 510 kts 106°
2026-05-04 19:31 21.80525 114.60068 25058 ft 515 kts 106°
2026-05-04 19:31 21.79608 114.63809 25588 ft 521 kts 107°
2026-05-04 19:32 21.78670 114.67572 26086 ft 527 kts 107°
2026-05-04 19:32 21.77714 114.71364 26591 ft 532 kts 107°
2026-05-04 19:32 21.76734 114.75221 27108 ft 537 kts 108°
2026-05-04 19:32 21.75745 114.79084 27597 ft 542 kts 108°
2026-05-04 19:33 21.74827 114.83025 28074 ft 549 kts 102°
2026-05-04 19:33 21.74372 114.87140 28589 ft 555 kts 94°
2026-05-04 19:33 21.74310 114.91260 29126 ft 559 kts 91°
2026-05-04 19:33 21.74318 114.95480 29793 ft 560 kts 91°
2026-05-04 19:34 21.74327 114.99626 30587 ft 557 kts 90°
2026-05-04 19:34 21.74334 115.03773 31453 ft 553 kts 91°
2026-05-04 19:34 21.74338 115.07848 32225 ft 550 kts 91°
2026-05-04 19:34 21.74339 115.11919 32840 ft 550 kts 91°
2026-05-04 19:35 21.74338 115.16048 33004 ft 553 kts 90°
2026-05-04 19:35 21.74330 115.24280 33008 ft 548 kts 91°
2026-05-04 19:36 21.74317 115.32503 33006 ft 551 kts 90°
2026-05-04 19:36 21.74298 115.40667 33008 ft 549 kts 90°
2026-05-04 19:37 21.74274 115.48910 33002 ft 551 kts 90°
2026-05-04 19:37 21.74246 115.57131 32999 ft 550 kts 90°
2026-05-04 19:38 21.74216 115.65300 32995 ft 550 kts 91°
2026-05-04 19:38 21.74183 115.73537 32983 ft 550 kts 91°
2026-05-04 19:39 21.74147 115.81719 32986 ft 551 kts 91°
2026-05-04 19:39 21.74105 115.89954 32984 ft 550 kts 91°
2026-05-04 19:40 21.74060 115.98176 32988 ft 551 kts 91°
2026-05-04 19:40 21.74010 116.06428 32990 ft 550 kts 91°
2026-05-04 19:41 21.73957 116.14584 32990 ft 549 kts 91°
2026-05-04 19:41 21.73900 116.22799 32992 ft 549 kts 91°
2026-05-04 19:42 21.73838 116.30984 32990 ft 549 kts 91°
2026-05-04 19:42 21.73773 116.39175 32993 ft 550 kts 91°
2026-05-04 19:43 21.73703 116.47389 32992 ft 550 kts 91°
2026-05-04 19:43 21.73630 116.55589 32993 ft 549 kts 91°
2026-05-04 19:44 21.73552 116.63765 32996 ft 549 kts 91°
2026-05-04 19:44 21.73470 116.71996 32985 ft 550 kts 91°
2026-05-04 19:45 21.74247 116.80112 32982 ft 549 kts 75°
2026-05-04 19:45 21.76766 116.87873 32986 ft 549 kts 67°
2026-05-04 19:46 21.79537 116.95486 32989 ft 549 kts 67°
2026-05-04 19:46 21.82309 117.03128 32983 ft 548 kts 67°
2026-05-04 19:47 21.85065 117.10746 32986 ft 549 kts 67°
2026-05-04 19:47 21.87849 117.18463 32992 ft 550 kts 67°
2026-05-04 19:48 21.90599 117.26105 32998 ft 550 kts 67°
2026-05-04 19:48 21.93368 117.33813 32995 ft 550 kts 67°
2026-05-04 19:49 21.96102 117.41439 32993 ft 548 kts 67°
2026-05-04 19:49 21.98900 117.49098 32995 ft 549 kts 63°
2026-05-04 19:50 22.02670 117.56211 33003 ft 547 kts 56°
2026-05-04 19:50 22.06638 117.63179 33005 ft 545 kts 56°
2026-05-04 19:51 22.10605 117.70160 32990 ft 546 kts 56°
2026-05-04 19:51 22.14572 117.77155 32993 ft 546 kts 56°
2026-05-04 19:52 22.18539 117.84164 32993 ft 546 kts 56°
2026-05-04 19:52 22.22476 117.91129 32995 ft 546 kts 56°
2026-05-04 19:53 22.26426 117.98129 32995 ft 546 kts 56°
2026-05-04 19:53 22.30419 118.05091 32998 ft 547 kts 55°
2026-05-04 19:54 22.34491 118.12051 32997 ft 546 kts 55°
2026-05-04 19:54 22.38533 118.18975 33002 ft 547 kts 55°
2026-05-04 19:55 22.42563 118.25971 33005 ft 546 kts 56°
2026-05-04 19:55 22.46517 118.32958 33003 ft 549 kts 56°
2026-05-04 19:56 22.50478 118.39964 33006 ft 546 kts 56°
2026-05-04 19:56 22.54446 118.46989 33007 ft 547 kts 56°
2026-05-04 19:57 22.58424 118.54023 33008 ft 547 kts 56°
2026-05-04 19:57 22.62402 118.61002 33011 ft 548 kts 56°
2026-05-04 19:58 22.66408 118.68037 32989 ft 550 kts 56°
2026-05-04 19:58 22.70409 118.75075 32991 ft 549 kts 56°
2026-05-04 19:59 22.74405 118.82115 32988 ft 548 kts 56°
2026-05-04 19:59 22.78390 118.89145 32989 ft 548 kts 56°
2026-05-04 20:00 22.82375 118.96185 32988 ft 548 kts 56°
2026-05-04 20:00 22.86356 119.03229 32992 ft 549 kts 56°
2026-05-04 20:01 22.90346 119.10297 32995 ft 548 kts 56°
2026-05-04 20:01 22.94316 119.17339 32996 ft 551 kts 56°
2026-05-04 20:02 22.98317 119.24447 32997 ft 550 kts 56°
2026-05-04 20:02 23.02300 119.31532 32994 ft 550 kts 56°
2026-05-04 20:03 23.06263 119.38594 32994 ft 549 kts 56°
2026-05-04 20:03 23.10248 119.45702 32994 ft 551 kts 56°
2026-05-04 20:04 23.14220 119.52790 32991 ft 551 kts 55°
2026-05-04 20:04 23.19107 119.59180 32988 ft 543 kts 37°
2026-05-04 20:05 23.25193 119.63836 33001 ft 533 kts 24°
2026-05-04 20:05 23.31597 119.67856 32981 ft 531 kts 24°
2026-05-04 20:06 23.38068 119.71917 32981 ft 535 kts 24°
2026-05-04 20:06 23.44473 119.75951 32986 ft 533 kts 24°
2026-05-04 20:07 23.50894 119.80083 32990 ft 536 kts 26°
2026-05-04 20:07 23.57188 119.84438 32994 ft 537 kts 26°
2026-05-04 20:08 23.63493 119.88805 32875 ft 530 kts 26°
2026-05-04 20:08 23.66621 119.90970 32126 ft 531 kts 27°
2026-05-04 20:08 23.69765 119.93140 30896 ft 542 kts 27°
2026-05-04 20:08 23.72948 119.95339 30124 ft 541 kts 27°
2026-05-04 20:09 23.76102 119.97523 29682 ft 534 kts 27°
2026-05-04 20:09 23.79230 119.99689 29140 ft 530 kts 27°
2026-05-04 20:09 23.82344 120.01844 28564 ft 526 kts 27°
2026-05-04 20:09 23.85442 120.03989 27973 ft 523 kts 28°
2026-05-04 20:10 23.88489 120.06098 27371 ft 521 kts 28°
2026-05-04 20:10 23.91538 120.08211 26757 ft 519 kts 28°
2026-05-04 20:10 23.94598 120.10332 26142 ft 516 kts 28°
2026-05-04 20:10 23.97603 120.12416 25534 ft 513 kts 28°
2026-05-04 20:11 24.00615 120.14506 24919 ft 511 kts 28°
2026-05-04 20:11 24.03625 120.16595 24293 ft 508 kts 28°
2026-05-04 20:11 24.06562 120.18635 23692 ft 505 kts 28°
2026-05-04 20:11 24.09544 120.20707 23065 ft 502 kts 29°
2026-05-04 20:12 24.12474 120.22744 22450 ft 499 kts 29°
2026-05-04 20:12 24.15387 120.24771 21843 ft 496 kts 29°
2026-05-04 20:12 24.18293 120.26794 21205 ft 493 kts 29°
2026-05-04 20:12 24.21206 120.28824 20584 ft 490 kts 28°
2026-05-04 20:13 24.24070 120.30819 19947 ft 487 kts 29°
2026-05-04 20:13 24.26911 120.32801 19411 ft 481 kts 29°
2026-05-04 20:13 24.29703 120.34750 19072 ft 471 kts 28°
2026-05-04 20:13 24.32453 120.36669 18262 ft 474 kts 28°
2026-05-04 20:14 24.35195 120.38585 17485 ft 461 kts 28°
2026-05-04 20:14 24.37866 120.40453 16870 ft 446 kts 28°
2026-05-04 20:14 24.40418 120.42239 16271 ft 432 kts 28°
2026-05-04 20:14 24.42931 120.43997 15774 ft 422 kts 28°
2026-05-04 20:15 24.45402 120.45724 15162 ft 423 kts 28°
2026-05-04 20:15 24.47901 120.47472 14545 ft 423 kts 28°
2026-05-04 20:15 24.50376 120.49204 13950 ft 422 kts 29°
2026-05-04 20:15 24.52852 120.50938 13368 ft 421 kts 28°
2026-05-04 20:16 24.55290 120.52647 12756 ft 413 kts 29°
2026-05-04 20:16 24.57683 120.54327 12202 ft 403 kts 29°
2026-05-04 20:16 24.60033 120.55977 11684 ft 395 kts 29°
2026-05-04 20:16 24.62325 120.57586 11179 ft 391 kts 29°
2026-05-04 20:17 24.64630 120.59203 10784 ft 385 kts 30°
2026-05-04 20:17 24.66836 120.60769 10673 ft 372 kts 32°
2026-05-04 20:17 24.68816 120.62536 10547 ft 362 kts 39°
2026-05-04 20:17 24.70688 120.64366 10393 ft 351 kts 39°
2026-05-04 20:18 24.72465 120.66114 10247 ft 340 kts 40°
2026-05-04 20:18 24.74213 120.67833 10100 ft 330 kts 40°
2026-05-04 20:18 24.75915 120.69507 9915 ft 322 kts 40°
2026-05-04 20:18 24.77580 120.71143 9656 ft 317 kts 40°
2026-05-04 20:19 24.79215 120.72752 9305 ft 317 kts 40°
2026-05-04 20:19 24.80869 120.74378 8685 ft 322 kts 40°
2026-05-04 20:19 24.82541 120.76025 8286 ft 319 kts 41°
2026-05-04 20:19 24.84194 120.77653 7878 ft 319 kts 42°
2026-05-04 20:20 24.85834 120.79269 7551 ft 317 kts 40°
2026-05-04 20:20 24.87480 120.80891 7136 ft 318 kts 41°
2026-05-04 20:20 24.89127 120.82516 6725 ft 317 kts 41°
2026-05-04 20:20 24.90655 120.84244 6300 ft 316 kts 57°
2026-05-04 20:21 24.91510 120.86439 5900 ft 308 kts 82°
2026-05-04 20:21 24.91668 120.88746 5548 ft 300 kts 91°
2026-05-04 20:21 24.91513 120.93252 4829 ft 288 kts 94°
2026-05-04 20:22 24.91404 120.95428 4491 ft 283 kts 94°
2026-05-04 20:22 24.91296 120.97570 4195 ft 274 kts 94°
2026-05-04 20:22 24.91193 120.99621 4185 ft 266 kts 94°
2026-05-04 20:22 24.91102 121.01615 4045 ft 256 kts 89°
2026-05-04 20:23 24.91362 121.03464 3947 ft 237 kts 64°
2026-05-04 20:23 24.92276 121.04960 3833 ft 230 kts 50°
2026-05-04 20:23 24.93274 121.06261 3703 ft 215 kts 48°
2026-05-04 20:23 24.94226 121.07460 3511 ft 199 kts 48°
2026-05-04 20:24 24.95133 121.08588 3268 ft 192 kts 47°
2026-05-04 20:24 24.95965 121.09624 3047 ft 169 kts 47°
2026-05-04 20:24 24.96715 121.10557 2847 ft 156 kts 47°
2026-05-04 20:24 24.97405 121.11421 2657 ft 146 kts 49°
2026-05-04 20:25 24.98068 121.12257 2475 ft 143 kts 49°
2026-05-04 20:25 24.98720 121.13081 2290 ft 141 kts 49°
2026-05-04 20:25 24.99368 121.13896 2112 ft 140 kts 50°
2026-05-04 20:25 25.00004 121.14697 1919 ft 138 kts 50°
2026-05-04 20:26 25.00632 121.15490 1745 ft 136 kts 51°
2026-05-04 20:26 25.01251 121.16270 1569 ft 135 kts 51°
2026-05-04 20:26 25.01869 121.17050 1391 ft 134 kts 51°
2026-05-04 20:26 25.02481 121.17821 1217 ft 134 kts 51°
2026-05-04 20:27 25.03101 121.18600 1034 ft 134 kts 51°
2026-05-04 20:27 25.03729 121.19373 838 ft 135 kts 51°
2026-05-04 20:27 25.04355 121.20125 572 ft 132 kts 51°
2026-05-04 20:27 25.04956 121.20888 394 ft 130 kts 52°
2026-05-04 20:28 25.05540 121.21636 269 ft 131 kts 52°
2026-05-04 20:28 25.06157 121.22420 174 ft 138 kts 52°
2026-05-04 20:28 25.06758 121.23196 122 ft 121 kts 50°
2026-05-04 20:28 25.07207 121.23785 122 ft 76 kts 49°
2026-05-04 20:29 25.07450 121.24086 122 ft 35 kts 38°
2026-05-04 20:29 25.07618 121.24191 122 ft 19 kts 22°
2026-05-04 20:29 25.07631 121.24196 122 ft 0 kts 20°
2026-05-04 20:30 25.07662 121.24208 122 ft 8 kts 19°
2026-05-04 20:30 25.07735 121.24237 122 ft 11 kts 19°
2026-05-04 20:30 25.07812 121.24262 122 ft 11 kts
2026-05-04 20:31 25.07882 121.24247 122 ft 10 kts 331°
2026-05-04 20:31 25.07938 121.24201 122 ft 9 kts 318°
2026-05-04 20:31 25.07977 121.24141 122 ft 9 kts 300°
2026-05-04 20:31 25.08016 121.24086 122 ft 9 kts 313°
2026-05-04 20:32 25.08052 121.24049 122 ft 5 kts 318°
2026-05-04 20:32 25.08056 121.24044 122 ft 0 kts 318°